Date String (YYYY-MM-DD hh:mm:ss) UTC,Instrument flags,absolute air pressure of the measurement (hPa),sample flow rate (lpm),inlet stack bypass flow (lpm),air temperature of the measurement (°C),ambient temperature measured by the external sensor (°C),aerosol sample conditioner tube jacket temperature (°C),OPC LED temperature (°C),internal box temperature (°C),relative humidity of the measurement (%),span deviation,mass concentration of particles derived from Lorenz-Mie calculation of OPC scattering (μg/m³),mass concentration of particles derived from Lorenz-Mie calculation of OPC scattering (μg/m³),mass concentration of particles derived from Lorenz-Mie calculation of OPC scattering (μg/m³)
DateTimeUTC,F1_M11,P_M11,Q1_M11,Q2_M11,T1_M11,T2_M11,T3_M11,T4_M11,T5_M11,U1_M11,ZSPAN_M11,X0_M11,X2_M11,X1_M11
2023-06-02 06:00:00,SystemResetWarning,0827.7,4.99,000.00,030.0,028.5,000.0,038.4,031.6,28.6,0000.0,0006.21,0003.44,0002.54
2023-06-02 06:01:00,SystemResetWarning,0827.8,5.00,000.00,030.0,028.5,000.0,038.4,031.6,28.6,0000.0,0006.10,0003.40,0002.52
2023-06-02 06:02:00,SystemResetWarning,0827.8,5.01,000.00,030.0,028.5,000.0,038.4,031.6,28.7,0000.0,0006.12,0003.39,0002.50
2023-06-02 06:03:00,SystemResetWarning,0827.8,5.01,000.00,030.0,028.5,000.0,038.4,031.6,28.7,0000.0,0006.18,0003.40,0002.49
2023-06-02 06:04:00,SystemResetWarning,0827.8,5.00,000.00,030.0,028.5,000.0,038.4,031.7,28.7,0000.0,0006.22,0003.39,0002.48
2023-06-02 06:05:00,SystemResetWarning,0827.8,5.00,000.00,030.0,028.5,000.0,038.4,031.7,28.7,0000.0,0006.33,0003.41,0002.48
2023-06-02 06:06:00,SystemResetWarning,0827.7,5.00,000.00,030.0,028.6,000.0,038.4,031.7,28.5,0000.0,0006.40,0003.42,0002.47
2023-06-02 06:07:00,SystemResetWarning,0827.9,4.99,000.00,030.0,028.6,000.0,038.4,031.7,28.6,0000.0,0006.18,0003.42,0002.47
2023-06-02 06:08:00,SystemResetWarning,0827.8,5.00,000.00,030.0,028.6,000.0,038.4,031.7,28.5,0000.0,0005.99,0003.37,0002.45
2023-06-02 06:09:00,SystemResetWarning,0827.8,4.99,000.00,030.0,028.6,000.0,038.4,031.7,28.3,0000.0,0005.82,0003.33,0002.42
2023-06-02 06:10:00,SystemResetWarning,0827.8,5.00,000.00,030.1,028.6,000.0,038.4,031.7,28.4,0000.0,0005.78,0003.33,0002.42
2023-06-02 06:11:00,SystemResetWarning,0828.0,5.00,000.00,030.1,028.6,000.0,038.4,031.7,28.1,0000.0,0005.69,0003.31,0002.40
2023-06-02 06:12:00,SystemResetWarning,0827.8,5.00,000.00,030.1,028.6,000.0,038.4,031.7,28.1,0000.0,0005.54,0003.28,0002.38
2023-06-02 06:13:00,SystemResetWarning,0827.8,5.01,000.00,030.1,028.6,000.0,038.5,031.7,28.2,0000.0,0005.34,0003.23,0002.36
2023-06-02 06:14:00,SystemResetWarning,0827.8,5.01,000.00,030.1,028.6,000.0,038.5,031.7,27.9,0000.0,0005.17,0003.19,0002.34
2023-06-02 06:15:00,SystemResetWarning,0827.8,5.00,000.00,030.1,028.6,000.0,038.5,031.7,27.8,0000.0,0005.03,0003.16,0002.31
2023-06-02 06:16:00,SystemResetWarning,0827.8,4.98,000.00,030.1,028.6,000.0,038.5,031.7,27.7,0000.0,0004.77,0003.12,0002.27
2023-06-02 06:17:00,SystemResetWarning,0827.8,5.00,000.00,030.1,028.6,000.0,038.5,031.7,27.7,0000.0,0004.68,0003.09,0002.25
2023-06-02 06:18:00,SystemResetWarning,0827.8,5.01,000.00,030.1,028.6,000.0,038.5,031.7,27.7,0000.0,0006.34,0003.09,0002.25
2023-06-02 06:19:00,SystemResetWarning,0827.8,5.00,000.00,030.1,028.6,000.0,038.5,031.7,27.7,0000.0,0006.44,0003.11,0002.25
2023-06-02 06:20:00,SystemResetWarning,0827.9,5.00,000.00,030.1,028.5,000.0,038.5,031.7,27.7,0000.0,0006.81,0003.17,0002.25
2023-06-02 06:21:00,SystemResetWarning,0827.8,5.00,000.00,030.1,028.5,000.0,038.5,031.7,27.6,0000.0,0006.92,0003.16,0002.23
2023-06-02 06:22:00,SystemResetWarning,0827.9,4.98,000.00,030.1,028.5,000.0,038.5,031.7,27.6,0000.0,0007.06,0003.18,0002.24
2023-06-02 06:23:00,SystemResetWarning,0827.9,5.00,000.00,030.1,028.5,000.0,038.5,031.6,27.5,0000.0,0006.96,0003.15,0002.22
2023-06-02 06:24:00,SystemResetWarning,0827.9,5.01,000.00,030.0,028.5,000.0,038.5,031.6,26.9,0000.0,0007.06,0003.19,0002.19
2023-06-02 06:25:00,SystemResetWarning,0827.8,5.01,000.00,030.0,028.5,000.0,038.5,031.6,26.1,0000.0,0007.15,0003.19,0002.17
2023-06-02 06:26:00,SystemResetWarning,0827.8,5.01,000.00,030.0,028.4,000.0,038.5,031.6,25.8,0000.0,0007.13,0003.17,0002.14
2023-06-02 06:27:00,SystemResetWarning,0827.8,4.99,000.00,030.0,028.4,000.0,038.5,031.6,25.2,0000.0,0007.28,0003.16,0002.09
2023-06-02 06:28:00,SystemResetWarning,0827.8,4.99,000.00,030.0,028.4,000.0,038.5,031.6,25.2,0000.0,0007.15,0003.12,0002.02
2023-06-02 06:29:00,SystemResetWarning,0827.9,5.01,000.00,030.0,028.4,000.0,038.4,031.6,24.8,0000.0,0006.01,0003.05,0001.95
2023-06-02 06:30:00,SystemResetWarning,0827.9,5.01,000.00,030.0,028.3,000.0,038.4,031.6,25.2,0000.0,0005.37,0003.00,0001.90
2023-06-02 06:31:00,SystemResetWarning,0827.9,5.00,000.00,030.0,028.4,000.0,038.4,031.6,25.5,0000.0,0005.17,0002.91,0001.85
2023-06-02 06:32:00,SystemResetWarning,0828.0,5.00,000.00,030.0,028.4,000.0,038.4,031.6,25.5,0000.0,0005.06,0002.85,0001.80
2023-06-02 06:33:00,SystemResetWarning,0828.0,5.01,000.00,030.0,028.4,000.0,038.4,031.6,25.7,0000.0,0005.22,0002.83,0001.76
2023-06-02 06:34:00,SystemResetWarning,0828.0,4.99,000.00,030.0,028.4,000.0,038.4,031.6,25.8,0000.0,0006.37,0002.91,0001.74
2023-06-02 06:35:00,SystemResetWarning,0828.0,5.00,000.00,030.0,028.4,000.0,038.4,031.6,25.9,0000.0,0006.36,0002.88,0001.74
2023-06-02 06:36:00,SystemResetWarning,0828.0,4.99,000.00,030.0,028.4,000.0,038.4,031.6,25.9,0000.0,0006.34,0002.88,0001.75
2023-06-02 06:37:00,SystemResetWarning,0827.9,5.00,000.00,030.0,028.4,000.0,038.4,031.6,25.8,0000.0,0006.36,0002.89,0001.74
2023-06-02 06:38:00,SystemResetWarning,0827.9,5.00,000.00,030.0,028.4,000.0,038.4,031.6,25.8,0000.0,0006.43,0002.92,0001.76
2023-06-02 06:39:00,SystemResetWarning,0827.8,5.00,000.00,030.0,028.4,000.0,038.4,031.6,25.6,0000.0,0006.60,0003.00,0001.78
2023-06-02 06:40:00,SystemResetWarning,0827.8,5.00,000.00,030.0,028.4,000.0,038.4,031.6,25.1,0000.0,0006.57,0003.01,0001.77
2023-06-02 06:41:00,SystemResetWarning,0827.8,5.00,000.00,030.0,028.4,000.0,038.4,031.6,24.8,0000.0,0006.59,0002.99,0001.76
2023-06-02 06:42:00,SystemResetWarning,0827.8,5.00,000.00,030.0,028.4,000.0,038.4,031.5,24.4,0000.0,0006.50,0002.94,0001.74
2023-06-02 06:43:00,SystemResetWarning,0827.7,5.00,000.00,030.0,028.4,000.0,038.4,031.5,24.5,0000.0,0006.21,0002.85,0001.73
2023-06-02 06:44:00,SystemResetWarning,0827.8,5.01,000.00,030.0,028.3,000.0,038.4,031.5,24.5,0000.0,0006.31,0002.73,0001.69
2023-06-02 06:45:00,SystemResetWarning,0827.7,5.00,000.00,030.0,028.3,000.0,038.4,031.5,24.7,0000.0,0005.50,0002.61,0001.65
2023-06-02 06:46:00,SystemResetWarning,0827.7,4.99,000.00,029.9,028.3,000.0,038.4,031.5,24.4,0000.0,0005.08,0002.51,0001.61
2023-06-02 06:47:00,SystemResetWarning,0827.7,4.99,000.00,029.9,028.3,000.0,038.4,031.5,24.1,0000.0,0004.95,0002.43,0001.56
2023-06-02 06:48:00,SystemResetWarning,0827.7,4.99,000.00,029.9,028.3,000.0,038.4,031.5,24.1,0000.0,0004.86,0002.36,0001.52
2023-06-02 06:49:00,SystemResetWarning,0827.7,5.00,000.00,029.9,028.3,000.0,038.4,031.5,24.4,0000.0,0004.74,0002.30,0001.48
2023-06-02 06:50:00,SystemResetWarning,0827.6,5.01,000.00,029.9,028.3,000.0,038.4,031.5,24.4,0000.0,0004.64,0002.19,0001.43
2023-06-02 06:51:00,SystemResetWarning,0827.5,5.00,000.00,029.9,028.2,000.0,038.4,031.5,24.6,0000.0,0004.60,0002.16,0001.42
2023-06-02 06:52:00,SystemResetWarning,0827.5,5.01,000.00,029.9,028.2,000.0,038.4,031.4,24.7,0000.0,0004.66,0002.20,0001.42
2023-06-02 06:53:00,SystemResetWarning,0827.5,5.01,000.00,029.9,028.2,000.0,038.4,031.4,24.6,0000.0,0004.75,0002.21,0001.40
2023-06-02 06:54:00,SystemResetWarning,0827.5,5.01,000.00,029.9,028.2,000.0,038.4,031.4,24.6,0000.0,0004.72,0002.19,0001.38
2023-06-02 06:55:00,SystemResetWarning,0827.8,4.99,000.00,029.9,028.2,000.0,038.3,031.4,24.7,0000.0,0004.22,0002.18,0001.38
2023-06-02 06:56:00,SystemResetWarning,0827.8,4.99,000.00,029.9,028.2,000.0,038.3,031.5,24.7,0000.0,0003.91,0002.15,0001.37
2023-06-02 06:57:00,SystemResetWarning,0827.8,5.00,000.00,029.9,028.2,000.0,038.3,031.4,24.4,0000.0,0003.90,0002.12,0001.35
2023-06-02 06:58:00,SystemResetWarning,0827.4,5.00,000.00,029.9,028.2,000.0,038.3,031.4,24.0,0000.0,0004.13,0002.07,0001.34
2023-06-02 06:59:00,SystemResetWarning,0827.4,5.00,000.00,029.9,028.2,000.0,038.3,031.4,24.3,0000.0,0004.67,0002.05,0001.34
